Probability
0 0 0 0 0 0 0 0 0 1 5 9 13 17 20 23 23 17 13 14 19 25 30 34 35 32 29 30 31 33 33 30 29 28 29 30 30 28 26 21 13 11 14 18
0 0 0 0 0 0 1 1 0 1 5 8 12 17 21 22 20 17 15 17 20 25 31 35 35 33 31 30 32 33 33 31 30 29 29 30 29 26 22 17 13 12 14 15
0 0 0 0 0 1 2 2 2 3 5 7 10 15 19 19 17 16 18 21 23 24 30 34 34 32 29 27 28 31 33 33 31 30 29 28 26 23 19 15 14 14 14 15
0 0 0 1 0 1 2 2 2 4 6 6 7 11 15 18 17 16 19 22 23 23 27 31 31 28 25 22 24 29 33 33 31 29 28 25 24 23 21 18 17 16 16 16
0 0 0 0 0 0 1 2 3 5 7 7 7 9 12 16 19 19 19 21 23 24 26 29 29 26 22 20 22 27 30 31 30 28 27 25 25 25 23 20 18 16 16 16
0 0 0 0 0 0 1 3 6 9 10 10 11 12 15 19 21 22 21 22 24 26 29 30 29 27 23 21 22 25 27 29 29 28 28 28 27 24 20 17 16 15 14 14
0 0 0 1 1 2 5 9 11 13 14 15 17 17 20 24 24 23 23 23 25 28 32 33 31 28 26 24 24 25 26 28 28 28 27 26 24 21 16 15 16 16 14 13
0 0 1 3 5 8 12 14 14 15 15 17 20 21 24 27 27 24 24 24 25 29 33 35 34 32 31 30 29 29 28 28 27 25 23 21 20 19 17 17 18 16 14 13
2 2 3 5 9 12 13 14 14 14 14 16 20 23 26 30 31 29 27 25 25 27 32 37 40 39 39 39 37 33 30 27 24 22 20 18 17 18 19 19 17 16 15 15
6 5 6 8 10 10 9 9 10 11 12 13 18 23 27 30 32 31 28 26 24 25 30 37 43 44 43 43 41 36 31 25 21 20 21 20 18 18 17 16 15 15 16 15
9 8 9 10 9 6 5 5 7 8 9 10 14 20 24 27 30 28 25 27 27 27 30 35 40 42 40 40 39 35 28 21 18 19 21 22 20 17 13 10 10 11 11 10
8 8 9 9 7 5 5 6 7 7 8 9 11 15 20 23 26 26 25 28 31 31 31 33 36 38 37 37 36 33 28 22 19 18 20 21 21 16 10 5 4 4 4 3
6 7 7 7 6 5 6 7 7 8 9 10 10 11 15 20 25 27 28 29 30 30 29 31 34 35 36 36 35 35 32 28 23 19 19 20 20 17 12 6 2 1 0 0
5 6 6 6 5 5 5 5 6 8 10 10 10 10 13 18 23 27 28 27 27 26 27 29 32 35 36 37 37 36 33 28 25 21 18 19 20 18 14 10 6 3 1 1
5 6 5 4 3 3 3 3 3 6 9 11 11 12 14 17 20 23 23 25 26 26 27 29 31 34 37 37 35 33 27 21 20 18 16 15 16 14 12 10 8 6 3 2
4 4 4 3 2 2 2 1 2 5 9 13 14 15 16 17 19 20 21 24 27 27 28 30 31 31 32 31 29 26 22 17 13 12 12 11 10 10 10 8 8 8 5 4
3 3 3 3 2 1 1 2 3 6 10 15 17 17 18 19 20 21 23 25 27 27 29 30 29 29 27 25 22 20 18 15 10 8 8 8 8 8 8 7 7 8 7 5
1 1 1 2 2 2 2 4 5 7 11 15 19 20 20 21 21 23 24 24 24 25 27 27 25 25 24 21 18 15 14 11 7 5 5 5 6 7 7 7 8 8 7 6
1 1 1 2 3 4 6 7 7 8 11 15 20 23 23 23 23 23 22 21 21 23 24 22 20 19 19 16 12 10 8 6 5 4 4 4 5 7 8 8 8 8 7 6
3 3 3 4 6 7 8 8 8 9 13 18 24 27 26 24 23 21 20 19 20 21 19 16 15 14 14 10 6 4 4 3 3 3 3 3 5 8 8 7 7 8 7 6
6 6 6 7 9 10 9 9 9 11 15 21 26 28 26 21 18 17 17 17 18 16 13 11 11 10 8 5 1 0 1 2 3 3 3 4 5 7 8 6 5 6 5 4
9 9 10 11 13 13 12 12 12 13 16 21 24 23 20 17 15 15 15 15 13 11 8 8 8 6 3 1 0 1 1 2 3 4 4 4 4 5 5 5 4 3 2 1
12 13 15 16 17 16 16 15 15 14 15 19 21 20 16 13 12 13 12 10 9 7 6 7 6 3 1 1 1 2 3 3 4 4 4 4 3 3 3 2 2 2 1 0
13 15 17 19 19 17 15 15 15 14 14 17 18 17 14 10 9 9 8 6 4 3 3 3 2 1 1 2 3 3 3 3 4 4 4 4 3 2 2 1 1 1 2 2
13 13 15 18 18 14 11 11 12 11 11 12 13 12 10 8 7 7 5 3 1 1 1 1 1 1 2 3 3 3 3 3 3 3 3 2 1 1 2 2 2 3 4 4
11 11 13 14 13 10 8 8 9 8 7 7 7 7 7 7 7 6 4 2 1 1 0 0 1 1 2 2 2 2 2 1 1 1 1 1 0 1 2 2 2 2 3 3
9 10 11 10 8 7 6 6 6 6 6 5 5 5 5 7 6 5 2 1 2 2 1 0 1 1 1 1 1 1 1 0 0 0 0 0 0 0 1 1 1 1 1 1
Wind_Speed
13 12 10 9 9 11 12 11 9 6 4 2 2 2 5 6 7 8 8 8 7 7 6 6 5 4 5 4 4 4 5 4 4 4 3 3 3 2 2 0 1 1 1 1
13 12 11 11 12 13 13 11 9 6 4 2 3 3 5 6 6 7 7 7 7 6 7 6 5 4 3 4 4 5 5 4 4 3 3 2 2 2 2 1 1 1 1 2
11 12 12 13 11 10 9 9 8 6 2 2 2 4 3 4 5 5 6 7 6 6 6 6 6 5 5 4 4 5 5 4 4 4 3 2 2 2 1 1 1 1 1 1
9 9 12 8 6 6 6 4 5 2 1 1 4 4 4 4 5 5 5 7 7 6 6 6 6 6 5 4 5 5 5 4 4 3 3 3 2 2 1 1 1 1 0 1
8 9 10 9 6 5 4 4 3 2 1 3 3 4 4 6 6 5 4 4 6 6 6 5 6 5 5 4 5 5 5 4 4 4 4 3 3 2 2 1 1 1 1 1
7 9 9 5 4 5 4 3 1 1 2 2 1 1 3 5 6 5 5 5 6 6 6 5 5 5 4 4 4 4 4 4 4 3 3 3 2 2 2 1 1 1 1 1
9 9 6 5 3 4 4 1 1 1 1 2 3 3 3 5 5 5 5 6 6 6 5 4 4 5 4 3 3 4 4 4 4 3 3 3 3 2 2 2 1 1 1 1
8 8 5 5 3 2 3 2 1 2 2 3 4 4 5 6 5 4 5 5 6 5 5 4 4 4 4 3 3 3 4 4 3 3 3 3 3 2 2 2 2 2 2 2
3 3 1 2 4 4 2 1 2 2 3 3 2 2 4 5 4 3 4 4 4 5 5 4 3 4 4 3 3 3 3 3 3 3 2 3 3 3 3 3 2 1 2 1
3 2 1 2 1 1 1 2 2 2 2 1 2 2 3 3 4 4 3 3 4 5 4 3 3 3 3 3 3 3 4 3 3 3 3 2 1 1 1 0 1 1 1 0
3 4 3 3 3 3 2 3 3 3 2 2 2 2 2 3 3 3 3 3 3 3 4 4 4 4 3 3 3 4 4 4 4 3 3 2 2 1 1 1 1 0 1 1
4 3 3 4 4 3 2 2 2 3 2 2 2 1 0 2 3 3 3 3 3 3 4 4 4 4 4 4 4 3 3 3 3 3 2 3 3 3 2 2 3 3 2 1
4 5 4 4 5 4 2 2 1 1 1 1 1 1 1 1 2 2 3 3 3 3 3 3 3 4 4 4 4 4 3 3 2 3 3 3 2 3 3 2 2 3 4 3
3 4 4 4 3 2 3 3 3 2 2 1 1 1 1 2 2 2 2 3 3 3 3 3 3 3 4 3 3 3 3 3 3 2 3 3 2 2 2 3 3 3 4 6
4 4 5 3 3 2 2 2 3 2 2 2 2 1 1 1 2 2 2 2 3 3 2 2 2 3 4 4 3 3 3 2 1 1 1 2 2 3 2 2 1 2 2 3
5 5 4 4 4 3 3 3 3 2 2 2 1 1 0 1 1 1 2 2 3 2 2 2 2 2 2 3 2 2 1 1 1 2 2 2 3 3 2 2 2 2 1 2
6 5 4 4 4 4 4 4 3 3 2 2 2 1 0 1 2 2 2 2 3 2 2 3 2 2 2 2 2 2 2 2 2 3 3 2 2 2 1 1 2 1 1 3
6 6 5 5 4 4 5 4 3 3 3 2 1 1 2 2 2 2 2 2 3 2 3 3 3 2 2 2 2 2 2 2 3 3 2 1 2 2 2 2 2 1 1 3
6 6 5 5 5 5 4 4 4 3 3 2 2 1 1 2 2 2 2 3 3 3 3 4 4 4 3 2 1 2 3 3 2 2 1 1 2 2 2 1 1 1 0 1
5 5 5 5 5 4 4 4 4 3 2 2 2 2 1 1 2 2 2 3 2 2 3 4 4 4 3 2 2 3 3 2 2 1 1 2 2 2 2 1 1 1 1 0
5 4 4 4 4 4 4 4 3 2 2 2 2 2 2 2 2 3 3 3 3 3 4 5 4 3 2 2 3 3 2 2 2 2 2 2 2 2 1 1 1 1 0 0
4 3 4 4 4 4 3 2 2 2 2 2 2 2 2 2 3 3 2 2 3 4 3 4 4 4 2 2 3 3 2 2 2 1 2 1 1 1 1 2 1 1 0 0
3 2 3 3 2 2 1 1 2 2 2 2 2 2 3 2 2 2 2 3 4 5 4 3 5 6 3 3 2 3 2 2 2 1 1 1 1 1 1 1 1 0 0 0
2 1 1 1 1 1 1 1 1 1 1 1 1 2 3 3 2 2 1 4 5 4 2 5 8 6 4 3 2 2 2 1 1 1 1 1 1 1 1 1 1 1 1 1
2 1 1 1 1 1 1 1 1 1 2 1 1 2 2 1 1 1 2 5 6 4 3 6 8 6 4 3 2 1 1 0 0 0 1 1 1 0 1 2 2 1 1 1
2 1 1 1 1 1 1 1 1 1 1 1 0 0 0 0 1 2 2 4 5 4 3 3 5 5 4 3 2 1 1 1 1 0 1 1 1 1 2 2 2 2 2 1
2 1 1 1 1 1 1 1 1 0 0 1 1 0 1 1 2 2 3 3 2 2 2 1 2 2 2 1 1 1 0 0 1 1 1 2 2 2 2 2 2 1 2 2
Wind_Direction
273 271 265 263 260 263 262 261 265 273 270 250 213 183 143 138 137 136 135 132 130 136 139 141 140 139 147 151 148 144 146 150 154 152 147 145 143 135 124 108 85 56 39 33
272 269 272 270 260 256 259 261 254 238 236 205 215 151 133 140 145 150 142 132 132 140 140 144 142 138 147 152 149 145 152 154 145 146 148 145 139 128 132 117 78 63 38 41
268 269 269 260 265 260 261 270 264 253 226 181 128 99 119 121 133 135 132 132 144 148 148 144 145 146 154 161 146 147 150 146 149 156 150 147 157 141 146 126 101 84 55 59
267 265 259 270 274 271 261 283 301 241 183 96 100 113 114 114 118 124 138 147 151 151 148 146 149 148 157 160 151 148 150 150 150 155 153 152 151 152 148 138 133 140 157 67
269 264 261 265 268 266 246 253 276 266 144 77 80 111 107 105 101 106 128 135 137 138 133 134 142 145 155 167 151 150 154 155 157 159 157 162 166 163 156 167 167 178 166 140
260 263 265 263 283 297 262 211 338 52 79 64 90 152 104 100 104 112 105 108 116 121 122 122 130 139 146 145 146 154 155 153 149 155 164 164 158 157 158 181 198 204 168 158
259 261 266 314 331 305 252 198 25 107 111 56 46 60 81 89 89 98 103 109 111 112 116 120 132 137 141 140 143 143 142 140 144 157 173 159 147 153 166 197 199 208 191 176
248 255 261 349 357 60 50 29 63 47 72 84 83 90 88 94 94 102 108 110 115 108 109 119 130 136 138 135 130 134 136 139 149 166 192 151 150 169 187 203 210 207 208 214
266 261 329 15 50 63 68 45 49 39 56 63 79 88 97 112 117 109 106 114 120 116 110 111 117 126 138 130 127 132 134 138 147 156 157 148 173 186 200 203 219 221 219 225
307 293 332 334 80 113 48 55 42 46 49 36 56 66 79 105 110 108 102 115 120 122 122 120 120 120 124 128 137 143 142 146 157 164 170 158 182 190 188 167 275 285 313 2
271 288 314 333 359 1 18 35 39 40 47 41 53 54 66 106 113 115 123 116 122 129 130 132 127 128 138 136 143 154 161 168 178 173 161 146 136 89 115 105 140 201 8 10
281 298 293 316 324 357 12 19 16 358 26 25 20 22 16 121 127 136 142 136 140 141 140 144 147 149 152 152 154 163 178 186 193 176 171 170 166 154 102 138 154 160 167 181
299 318 328 322 326 340 358 0 341 323 350 1 4 345 321 111 124 133 141 139 138 138 137 144 157 163 159 157 165 178 185 194 204 190 182 185 189 177 170 173 200 218 220 216
300 312 308 307 318 341 345 333 325 322 354 4 332 304 236 134 127 142 148 150 138 136 149 155 158 161 155 160 174 189 196 194 210 206 200 197 190 199 201 195 188 209 217 215
283 291 293 295 290 291 296 305 306 325 347 338 330 342 69 112 135 149 147 142 135 150 153 149 151 152 156 174 185 199 205 202 214 223 218 206 210 221 221 206 199 199 170 181
282 277 282 287 292 297 289 287 300 324 327 308 302 328 162 151 146 145 148 147 152 162 151 150 156 153 161 170 181 199 184 173 217 245 242 228 226 234 227 201 214 218 196 151
281 274 275 283 291 294 292 293 305 318 312 303 295 319 229 147 148 150 148 141 140 138 145 139 142 147 175 192 203 210 183 167 213 248 243 239 249 255 256 238 231 213 141 135
267 265 262 267 274 276 279 286 292 288 279 275 264 234 208 173 173 166 165 157 152 157 148 141 144 157 190 198 207 212 188 196 223 239 251 258 268 264 267 266 254 206 150 148
265 267 261 257 261 260 260 265 269 271 272 256 227 219 225 193 169 171 173 181 192 185 165 151 158 185 189 167 212 225 220 220 227 229 236 229 250 259 268 283 302 305 93 116
284 282 269 263 270 270 260 254 256 258 258 234 225 218 208 192 180 187 194 204 193 169 147 146 173 189 176 159 233 247 236 237 246 244 228 238 248 257 270 284 301 322 5 87
287 282 278 267 263 262 264 262 253 247 254 238 228 217 202 205 204 202 214 203 157 145 153 160 180 176 162 168 228 255 261 250 246 243 244 252 251 252 265 281 300 320 336 32
280 276 276 275 274 268 258 249 233 228 227 238 237 212 203 208 211 215 218 194 153 149 174 183 166 135 135 198 236 254 262 261 252 240 246 250 252 247 251 251 243 235 147 189
297 294 293 291 288 288 292 256 223 211 220 233 229 220 216 225 228 226 203 170 158 169 190 165 138 139 159 229 247 257 259 263 266 256 260 260 249 244 252 252 243 202 118 326
307 306 303 295 289 279 271 264 246 225 206 204 223 224 217 211 217 218 142 126 133 150 161 140 152 164 199 236 241 245 241 255 285 290 274 287 303 316 322 358 19 34 44 25
295 262 258 267 259 258 246 243 229 175 177 165 181 208 224 215 209 167 137 136 140 153 153 159 172 184 212 235 234 233 244 328 7 27 321 323 342 16 52 56 41 32 20 12
314 276 246 252 245 244 230 221 227 214 188 155 191 152 24 185 168 151 145 152 155 161 169 168 172 189 214 222 213 220 213 154 134 116 91 74 47 59 60 37 25 30 24 31
282 277 247 238 263 268 252 249 267 278 130 99 83 75 230 192 142 143 147 147 151 152 150 160 174 191 202 203 196 209 204 54 49 52 67 81 76 68 63 49 28 24 32 35